Norfolk, NE

8:43 PM CST on December 09, 2019 (GMT -0600)
Stefan Memorial

Weather History for KOFK - October, 2019

Change the Weather History Date:

Friday, October 25, 2019

  Actual Average Record
Temperature  
Mean Temperature 43 °F 47 °F  
Max Temperature 61 °F 59 °F 90 °F (1927)
Min Temperature 24 °F 35 °F 17 °F (1942)
Degree Days  
Heating Degree Days 22 18  
Month to date heating degree days 400 328  
Since 1 July heating degree days 430 470  
Cooling Degree Days 0 0  
Month to date cooling degree days 0 8  
Year to date cooling degree days 949 914  
Moisture  
Dew Point 25 °F    
Average Humidity 54    
Maximum Humidity 81    
Minimum Humidity 27    
Precipitation  
Precipitation 0.00 in 0.05 in 1.00 in (1921)
Month to date precipitation 1.93 1.77  
Year to date precipitation 23.96 24.99  
Snow  
Snow 0.00 in 0.10 in - ()
Month to date snowfall T 0.5  
Since 1 July snowfall T 0.5  
Since 1 September snowfall T 0.5  
Snow Depth 0.00 in    
Sea Level Pressure  
Sea Level Pressure 30.24 in    
Wind  
Wind Speed 11 mph (SSW)    
Max Wind Speed 21 mph    
Max Gust Speed 31 mph    
Visibility 10 miles    
Events      
T = Trace of Precipitation, MM = Missing Value Source: NWS Daily Summary

Daily Weather History Graph

Daily Weather History Graph

Search for Another Location

Airport or City:

Astronomy

Oct. 25, 2019 Rise Set
Actual Time 7:53 AM CDT 6:33 PM CDT
Civil Twilight 7:25 AM CDT 7:01 PM CDT
Nautical Twilight 6:52 AM CDT 7:34 PM CDT
Astronomical Twilight 6:20 AM CDT 8:06 PM CDT
Moon 4:33 AM CDT (10/25) 5:39 PM CDT (10/25)
Length of Visible Light 11h 36m
Length of Day
10h 39m
Waning Crescent, 9% of the Moon is Illuminated
Oct 25
Waning Crescent
Oct 27
New
Nov 4
First Quarter
Nov 12
Full
Nov 19
Last Quarter

Hourly Weather History & Observations

Time (CDT) Temp. Windchill Dew Point Humidity Pressure Visibility Wind Dir Wind Speed Gust Speed Precip Events Conditions
12:56 AM 30.9 °F - 23.0 °F 72% 30.38 in 10.0 mi Calm Calm - N/A   Clear
1:56 AM 32.0 °F - 23.0 °F 69% 30.36 in 10.0 mi Calm Calm - N/A   Clear
2:56 AM 28.0 °F - 21.9 °F 78% 30.37 in 10.0 mi Calm Calm - N/A   Clear
3:56 AM 28.9 °F 25.2 °F 21.9 °F 75% 30.36 in 10.0 mi SSW 3.5 mph - N/A   Clear
4:56 AM 25.0 °F 18.1 °F 19.9 °F 81% 30.37 in 10.0 mi SSW 5.8 mph - N/A   Clear
5:56 AM 27.0 °F 21.6 °F 21.0 °F 78% 30.36 in 10.0 mi South 4.6 mph - N/A   Clear
6:56 AM 28.0 °F 21.7 °F 21.9 °F 78% 30.36 in 10.0 mi South 5.8 mph - N/A   Clear
7:56 AM 28.0 °F - 21.0 °F 75% 30.36 in 10.0 mi Calm Calm - N/A   Clear
8:56 AM 33.1 °F 30.0 °F 27.0 °F 78% 30.35 in 10.0 mi SSW 3.5 mph - N/A   Clear
9:56 AM 39.9 °F 33.4 °F 28.9 °F 65% 30.34 in 10.0 mi SSW 10.4 mph - N/A   Clear
10:56 AM 45.0 °F 41.2 °F 30.0 °F 56% 30.31 in 10.0 mi South 6.9 mph - N/A   Clear
11:56 AM 52.0 °F - 30.0 °F 43% 30.28 in 10.0 mi SSW 12.7 mph - N/A   Clear
12:56 PM 57.0 °F - 27.0 °F 32% 30.24 in 10.0 mi SSW 13.8 mph - N/A   Clear
1:56 PM 59.0 °F - 26.1 °F 28% 30.18 in 10.0 mi South 18.4 mph - N/A   Clear
2:56 PM 60.1 °F - 26.1 °F 27% 30.16 in 10.0 mi South 18.4 mph 27.6 mph N/A   Clear
3:56 PM 60.1 °F - 26.1 °F 27% 30.13 in 10.0 mi South 13.8 mph 25.3 mph N/A   Clear
4:56 PM 60.1 °F - 26.1 °F 27% 30.12 in 10.0 mi South 15.0 mph - N/A   Clear
5:56 PM 55.9 °F - 27.0 °F 33% 30.11 in 10.0 mi South 11.5 mph - N/A   Clear
6:56 PM 52.0 °F - 27.0 °F 38% 30.11 in 10.0 mi South 10.4 mph - N/A   Clear
8:56 PM 48.0 °F - 27.0 °F 44% 30.10 in 10.0 mi South 16.1 mph - N/A   Clear
9:56 PM 46.0 °F 38.8 °F 27.0 °F 47% 30.07 in 10.0 mi South 18.4 mph - N/A   Clear
10:56 PM 44.1 °F 36.2 °F 26.1 °F 49% 30.05 in 10.0 mi South 18.4 mph - N/A   Clear
11:56 PM 42.1 °F 34.2 °F 26.1 °F 53% 30.02 in 10.0 mi South 16.1 mph - N/A   Clear